Torna al catalogo

STARLINK-34662

AttivoComunicazioniVLEO
NORAD 64799·PAYLOAD·🇺🇸 United States

Lanciato Jul 16, 2025 da Vandenberg Space Force Base

Loading…

Prossimi Passaggi (prossime 24 ore)

TLE

AggiornatoSource: CelesTrak SupGP

Epoca: Sep 14, 2026, 21:14 UTC

1 64799C 25150K   26257.88520833 -.00026106  00000+0 -21879-2 0  2579
2 64799  70.0028  17.2633 0003339 272.7388 336.0397 14.98340939    13

Traccia STARLINK-34662 in tempo reale con AllMySat

Download on the App Store